Powrót do katalogu

SS-18 R/B

AktywnyLEO
NORAD 25695·ROCKET BODY·🇷🇺 Russia

Wystrzelony Apr 21, 1999 z Baikonur Cosmodrome

Loading…

Następne Przeloty (najbliższe 24 godziny)

TLE

ŚwieżeSource: Space-Track

Epoka: Sep 14, 2026, 12:48 UTC

1 25695U 99021C   26257.53397325  .00000064  00000-0  59096-4 0  9990
2 25695  64.5525 285.4650 0569985 287.9884  65.9856 13.73082978372249

Śledź SS-18 R/B w czasie rzeczywistym z AllMySat

Download on the App Store